Погода в Раума

Финляндия     61°07′55″N   21°31′16″E
темп.,
°C
ветер,
м/с
пор.,
м/с
влажн.,
%
обл.,
%
осадки,
мм/ч
давл.,
гПа
погр.,
м
27 ноября, сб
сб2723:00−2юв326872 0.0 1002285
02:00−3юв347119 0.0 1004259
05:00−3вюв34745 0.0 1005286
08:00−4в45755 0.0 1006277
11:00−4в4668100 0.0 1007286
14:00−4в5764100 0.0 1007309
17:00−4в5867100 0.0 1007303
20:00−4в5869100 0.0 1007297
28 ноября, вс
вс2823:00−4в5868100 0.0 1007303
02:00−4всв5868100 0.0 1006309
05:00−4всв4769100 0.0 1006321
08:00−4всв5870100 0.0 1006343
11:00−4всв61063100 0.0 1006400
14:00−3всв61055100 0.0 1006417
17:00−4всв5860100 0.0 1007408
20:00−4в5869100 0.0 1008401
29 ноября, пн
пн2923:00−4всв5875100 0.0 1009396
02:00−4в588084 0.0 1009391
05:00−4в61081100 0.0 1009458
08:00−4всв69785 0.0 1008481
11:00−5в5981100 0.0 1009493
14:00−5всв6880100 0.0 1006481
17:00−5св578596 0.0 1004399
20:00−6св578593 0.0 1003373
30 ноября, вт
вт3023:00−6св578260 0.0 1000434
02:00−7св687891 0.0 998453
05:00−6ссв697736 0.0 996454
08:00−6ссв710765 0.0 994544
11:00−6ссв711715 0.0 994538
14:00−5ссв811652 0.0 993618
17:00−5с811680 0.0 993698
20:00−4с813669 0.0 993933
1 декабря, ср
ср123:00−4ссв7107048 0.0 994934
02:00−3с5772100 0.1 994842
05:00−3с4667100 0.1 994809
08:00−3ссв2464100 0.2 995807
11:00−4юв229195 0.4 996257
14:00−3ю2384100 0.9 995415
17:00−3с2371100 0.3 994713
20:00−4в118087 0.5 993396